Time,TemperatureF,DewpointF,PressureIn,WindDirection,WindDirectionDegrees,WindSpeedMPH,WindSpeedGustMPH,Humidity,HourlyPrecipIn,Conditions,Clouds,dailyrainin,SolarRadiationWatts/m^2,SoftwareType,DateUTC
2013-07-03 00:01:00,71.0,69.0,-100.00,SE,144,2.0,6.0,93,0.00,,,0.18,0.000000,,2013-07-03 04:01:00,
2013-07-03 00:43:00,71.0,69.0,-100.00,ESE,120,1.0,5.0,95,0.00,,,0.18,0.000000,,2013-07-03 04:43:00,
2013-07-03 00:52:00,71.0,69.0,-100.00,ESE,120,1.0,5.0,95,0.00,,,0.18,0.000000,,2013-07-03 04:52:00,
2013-07-03 01:02:00,71.0,69.0,-100.00,ESE,120,1.0,5.0,95,0.00,,,0.18,0.000000,,2013-07-03 05:02:00,
2013-07-03 01:06:00,70.0,69.0,-100.00,SE,142,1.0,3.0,96,0.00,,,0.17,0.000000,,2013-07-03 05:06:00,
2013-07-03 01:48:00,70.0,69.0,-100.00,SE,142,1.0,3.0,96,0.00,,,0.17,0.000000,,2013-07-03 05:48:00,
2013-07-03 02:06:00,70.0,69.0,-100.00,SE,127,1.0,2.0,97,0.00,,,0.16,0.000000,,2013-07-03 06:06:00,
2013-07-03 02:50:00,70.0,69.0,-100.00,SE,127,1.0,2.0,97,0.00,,,0.16,0.000000,,2013-07-03 06:50:00,
2013-07-03 02:58:00,70.0,69.0,-100.00,SE,127,1.0,2.0,97,0.00,,,0.16,0.000000,,2013-07-03 06:58:00,
2013-07-03 03:06:00,70.0,69.0,-100.00,West,264,0.0,1.0,97,0.00,,,0.13,0.000000,,2013-07-03 07:06:00,
2013-07-03 03:40:00,70.0,69.0,-100.00,West,264,0.0,1.0,97,0.00,,,0.13,0.000000,,2013-07-03 07:40:00,
2013-07-03 03:48:00,70.0,69.0,-100.00,West,264,0.0,1.0,97,0.00,,,0.13,0.000000,,2013-07-03 07:48:00,
2013-07-03 04:38:00,70.0,69.0,-100.00,ESE,122,0.0,2.0,97,0.00,,,0.08,0.000000,,2013-07-03 08:38:00,
2013-07-03 04:47:00,70.0,69.0,-100.00,ESE,122,0.0,2.0,97,0.00,,,0.08,0.000000,,2013-07-03 08:47:00,
2013-07-03 05:58:00,69.0,68.0,-100.00,SE,143,2.0,4.0,98,0.00,,,0.08,0.000000,,2013-07-03 09:58:00,
2013-07-03 06:06:00,69.0,68.0,-100.00,SE,142,1.0,5.0,98,0.00,,,0.08,0.000000,,2013-07-03 10:06:00,
2013-07-03 06:47:00,69.0,68.0,-100.00,SE,142,1.0,5.0,98,0.00,,,0.08,0.000000,,2013-07-03 10:47:00,
2013-07-03 06:56:00,69.0,68.0,-100.00,SE,142,1.0,5.0,98,0.00,,,0.08,0.000000,,2013-07-03 10:56:00,
2013-07-03 07:06:00,69.0,69.0,-100.00,SSE,158,1.0,4.0,99,0.00,,,0.08,3.000000,,2013-07-03 11:06:00,
2013-07-03 07:46:00,69.0,69.0,-100.00,SSE,158,1.0,4.0,99,0.00,,,0.08,3.000000,,2013-07-03 11:46:00,
2013-07-03 08:06:00,69.0,69.0,-100.00,SE,132,1.0,4.0,99,0.20,,,-99.99,22.000000,,2013-07-03 12:06:00,
2013-07-03 08:38:00,69.0,69.0,-100.00,SE,132,1.0,4.0,99,0.20,,,-99.99,22.000000,,2013-07-03 12:38:00,
2013-07-03 08:47:00,69.0,69.0,-100.00,SE,132,1.0,4.0,99,0.20,,,-99.99,22.000000,,2013-07-03 12:47:00,
2013-07-03 08:58:00,69.0,69.0,-100.00,SE,132,1.0,4.0,99,0.20,,,-99.99,22.000000,,2013-07-03 12:58:00,
2013-07-03 09:06:00,69.0,69.0,-100.00,ESE,121,3.0,7.0,99,0.00,,,-99.99,41.000000,,2013-07-03 13:06:00,
2013-07-03 09:55:00,69.0,69.0,-100.00,ESE,121,3.0,7.0,99,0.00,,,-99.99,41.000000,,2013-07-03 13:55:00,
2013-07-03 13:06:00,73.0,73.0,-100.00,SSE,150,3.0,6.0,99,-99.99,,,0.46,230.000000,,2013-07-03 17:06:00,
2013-07-03 13:43:00,73.0,73.0,-100.00,SSE,150,3.0,6.0,99,-99.99,,,0.46,230.000000,,2013-07-03 17:43:00,
2013-07-03 13:50:00,73.0,73.0,-100.00,SSE,150,3.0,6.0,99,-99.99,,,0.46,230.000000,,2013-07-03 17:50:00,
2013-07-03 13:56:00,73.0,73.0,-100.00,SSE,150,3.0,6.0,99,-99.99,,,0.46,230.000000,,2013-07-03 17:56:00,
2013-07-03 14:39:00,73.0,71.0,-100.00,SE,134,2.0,6.0,93,0.00,,,0.46,274.000000,,2013-07-03 18:39:00,
2013-07-03 14:47:00,73.0,71.0,-100.00,SE,134,2.0,6.0,93,0.00,,,0.46,274.000000,,2013-07-03 18:47:00,
2013-07-03 14:59:00,73.0,71.0,-100.00,SE,134,2.0,6.0,93,0.00,,,0.46,274.000000,,2013-07-03 18:59:00,
2013-07-03 15:04:00,73.0,71.0,-100.00,SE,134,2.0,6.0,93,0.00,,,0.46,274.000000,,2013-07-03 19:04:00,
2013-07-03 15:38:00,75.0,73.0,-100.00,SE,134,1.0,4.0,93,0.00,,,0.46,274.000000,,2013-07-03 19:38:00,
2013-07-03 15:49:00,75.0,73.0,-100.00,SE,134,1.0,4.0,93,0.00,,,0.46,274.000000,,2013-07-03 19:49:00,
2013-07-03 15:58:00,75.0,73.0,-100.00,SE,134,1.0,4.0,93,0.00,,,0.46,274.000000,,2013-07-03 19:58:00,
2013-07-03 16:04:00,75.0,73.0,-100.00,SE,134,1.0,4.0,93,0.00,,,0.46,274.000000,,2013-07-03 20:04:00,
2013-07-03 16:06:00,79.0,73.0,-100.00,SE,136,1.0,7.0,82,0.00,,,0.46,462.000000,,2013-07-03 20:06:00,
2013-07-03 16:47:00,79.0,73.0,-100.00,SE,136,1.0,7.0,82,0.00,,,0.46,462.000000,,2013-07-03 20:47:00,
2013-07-03 17:06:00,68.0,65.0,-100.00,West,271,4.0,9.0,89,0.98,,,1.44,84.000000,,2013-07-03 21:06:00,
2013-07-03 17:37:00,68.0,65.0,-100.00,West,271,4.0,9.0,89,0.98,,,1.44,84.000000,,2013-07-03 21:37:00,
2013-07-03 17:45:00,68.0,65.0,-100.00,West,271,4.0,9.0,89,0.98,,,1.44,84.000000,,2013-07-03 21:45:00,
2013-07-03 17:55:00,68.0,65.0,-100.00,West,271,4.0,9.0,89,0.98,,,1.44,84.000000,,2013-07-03 21:55:00,
2013-07-03 18:06:00,64.0,63.0,-100.00,NW,319,2.0,10.0,98,1.43,,,2.87,5.000000,,2013-07-03 22:06:00,
2013-07-03 18:38:00,64.0,63.0,-100.00,NW,319,2.0,10.0,98,1.43,,,2.87,5.000000,,2013-07-03 22:38:00,
2013-07-03 18:57:00,64.0,63.0,-100.00,NW,319,2.0,10.0,98,1.43,,,2.87,5.000000,,2013-07-03 22:57:00,
2013-07-03 19:40:00,64.0,64.0,-100.00,NNW,347,1.0,4.0,99,0.23,,,3.10,17.000000,,2013-07-03 23:40:00,
2013-07-03 19:46:00,64.0,64.0,-100.00,NNW,347,1.0,4.0,99,0.23,,,3.10,17.000000,,2013-07-03 23:46:00,
2013-07-03 19:56:00,64.0,64.0,-100.00,NNW,347,1.0,4.0,99,0.23,,,3.10,17.000000,,2013-07-03 23:56:00,
2013-07-03 20:38:00,64.0,64.0,-100.00,NE,36,1.0,2.0,99,0.02,,,3.12,23.000000,,2013-07-04 00:38:00,
2013-07-03 20:50:00,64.0,64.0,-100.00,NE,36,1.0,2.0,99,0.02,,,3.12,23.000000,,2013-07-04 00:50:00,
2013-07-03 20:57:00,64.0,64.0,-100.00,NE,36,1.0,2.0,99,0.02,,,3.12,23.000000,,2013-07-04 00:57:00,
2013-07-03 21:05:00,64.0,64.0,-100.00,NE,36,1.0,2.0,99,0.02,,,3.12,23.000000,,2013-07-04 01:05:00,
2013-07-03 21:06:00,64.0,64.0,-100.00,NW,316,2.0,4.0,99,0.02,,,3.14,3.000000,,2013-07-04 01:06:00,
2013-07-03 21:40:00,64.0,64.0,-100.00,NW,316,2.0,4.0,99,0.02,,,3.14,3.000000,,2013-07-04 01:40:00,
2013-07-03 21:47:00,64.0,64.0,-100.00,NW,316,2.0,4.0,99,0.02,,,3.14,3.000000,,2013-07-04 01:47:00,
2013-07-03 21:56:00,64.0,64.0,-100.00,NW,316,2.0,4.0,99,0.02,,,3.14,3.000000,,2013-07-04 01:56:00,
2013-07-03 22:49:00,64.0,64.0,-100.00,ESE,118,1.0,5.0,99,0.00,,,3.14,0.000000,,2013-07-04 02:49:00,
2013-07-03 22:57:00,64.0,64.0,-100.00,ESE,118,1.0,5.0,99,0.00,,,3.14,0.000000,,2013-07-04 02:57:00,
2013-07-03 23:05:00,64.0,64.0,-100.00,ESE,118,1.0,5.0,99,0.00,,,3.14,0.000000,,2013-07-04 03:05:00,
2013-07-03 23:46:00,64.0,64.0,-100.00,East,81,1.0,4.0,100,0.00,,,3.14,0.000000,,2013-07-04 03:46:00,
2013-07-03 23:57:00,64.0,64.0,-100.00,East,81,1.0,4.0,100,0.00,,,3.14,0.000000,,2013-07-04 03:57:00,